• In India
  • List of Countries
  • For 7 days
  • Water Temperature
  • Satellite Maps
  • Weather Map
  • Weather Widgets
  • user-avatar
    Login

    Hourly Weather Nassjo

    Today, 23 July, Monday

    Time Temperature Precipitation Wind Pressure Humidity
    00:00 +14°C° 0 mm 2 mps 732 mmHg 90%
    01:00 +13°C° 0 mm 2 mps 732 mmHg 94%
    02:00 +13°C° 0 mm 2 mps 732 mmHg 95%
    03:00 +13°C° 0 mm 2 mps 732 mmHg 96%
    04:00 +13°C° 0 mm 2 mps 732 mmHg 97%
    05:00 +14°C° 0 mm 2 mps 732 mmHg 90%
    06:00 +16°C° 0 mm 2 mps 732 mmHg 83%
    07:00 +18°C° 0 mm 3 mps 732 mmHg 76%
    08:00 +19°C° 0 mm 3 mps 732 mmHg 73%
    09:00 +19°C° 0 mm 3 mps 733 mmHg 70%
    10:00 +20°C° 0 mm 3 mps 733 mmHg 67%
    11:00 +21°C° 0 mm 3 mps 733 mmHg 65%
    12:00 +22°C° 0 mm 3 mps 733 mmHg 62%
    13:00 +24°C° 0 mm 3 mps 733 mmHg 59%
    14:00 +25°C° 0 mm 3 mps 733 mmHg 57%
    15:00 +25°C° 0 mm 3 mps 733 mmHg 54%
    16:00 +26°C° 0 mm 3 mps 733 mmHg 51%
    17:00 +25°C° 0 mm 3 mps 733 mmHg 53%
    18:00 +25°C° 0 mm 2 mps 733 mmHg 56%
    19:00 +24°C° 0 mm 2 mps 733 mmHg 58%
    20:00 +21°C° 0 mm 2 mps 733 mmHg 67%
    21:00 +19°C° 0 mm 2 mps 733 mmHg 76%
    22:00 +17°C° 0 mm 2 mps 733 mmHg 84%
    23:00 +17°C° 0 mm 2 mps 733 mmHg 88%

    Tomorrow, 24 July, Tuesday

    Time Temperature Precipitation Wind Pressure Humidity
    00:00 +16°C° 0 mm 2 mps 733 mmHg 92%
    01:00 +15°C° 0 mm 2 mps 733 mmHg 96%
    02:00 +16°C° 0 mm 2 mps 733 mmHg 97%
    03:00 +16°C° 0 mm 2 mps 733 mmHg 97%
    04:00 +16°C° 0 mm 2 mps 733 mmHg 97%
    05:00 +17°C° 0 mm 2 mps 733 mmHg 94%
    06:00 +17°C° 0 mm 2 mps 733 mmHg 90%
    07:00 +18°C° 0 mm 2 mps 734 mmHg 86%
    08:00 +20°C° 0 mm 2 mps 734 mmHg 78%
    09:00 +23°C° 0 mm 2 mps 734 mmHg 71%
    10:00 +24°C° 0 mm 2 mps 734 mmHg 63%
    11:00 +26°C° 0 mm 2 mps 734 mmHg 56%
    12:00 +28°C° 0 mm 2 mps 734 mmHg 49%
    13:00 +30°C° 0 mm 2 mps 734 mmHg 42%
    14:00 +30°C° 0 mm 2 mps 734 mmHg 42%
    15:00 +30°C° 0 mm 2 mps 734 mmHg 41%
    16:00 +30°C° 0 mm 2 mps 734 mmHg 41%
    17:00 +29°C° 0 mm 2 mps 734 mmHg 45%
    18:00 +28°C° 0 mm 2 mps 734 mmHg 50%
    19:00 +27°C° 0 mm 2 mps 734 mmHg 54%
    20:00 +25°C° 0 mm 2 mps 734 mmHg 62%
    21:00 +23°C° 0 mm 2 mps 734 mmHg 69%
    22:00 +21°C° 0 mm 1 mps 734 mmHg 77%
    23:00 +20°C° 0 mm 1 mps 734 mmHg 81%

    Day after tomorrow, 25 July, Wednesday

    Time Temperature Precipitation Wind Pressure Humidity
    00:00 +19°C° 0 mm 1 mps 734 mmHg 85%
    01:00 +18°C° 0 mm 1 mps 734 mmHg 88%
    02:00 +18°C° 0 mm 1 mps 734 mmHg 90%
    03:00 +18°C° 0 mm 1 mps 734 mmHg 91%
    04:00 +18°C° 0 mm 1 mps 735 mmHg 92%
    05:00 +20°C° 0 mm 1 mps 735 mmHg 83%
    06:00 +22°C° 0 mm 1 mps 735 mmHg 73%
    07:00 +24°C° 0 mm 1 mps 736 mmHg 64%
    08:00 +26°C° 0 mm 1 mps 736 mmHg 57%
    09:00 +29°C° 0 mm 1 mps 736 mmHg 50%
    10:00 +31°C° 0 mm 1 mps 736 mmHg 43%
    11:00 +31°C° 0 mm 1 mps 736 mmHg 41%
    12:00 +31°C° 0 mm 1 mps 736 mmHg 39%
    13:00 +31°C° 0 mm 1 mps 736 mmHg 37%
    14:00 +31°C° 0 mm 1 mps 736 mmHg 38%
    15:00 +31°C° 0 mm 1 mps 736 mmHg 39%
    16:00 +30°C° 0 mm 1 mps 736 mmHg 40%
    17:00 +29°C° 0 mm 1 mps 736 mmHg 42%
    18:00 +29°C° 0 mm 1 mps 736 mmHg 45%
    19:00 +28°C° 0 mm 1 mps 736 mmHg 48%
    20:00 +26°C° 0 mm 1 mps 736 mmHg 55%
    21:00 +24°C° 0 mm 1 mps 736 mmHg 62%
    22:00 +22°C° 0 mm 1 mps 736 mmHg 69%
    23:00 +21°C° 0 mm 1 mps 736 mmHg 73%

    26 July, Thursday

    Time Temperature Precipitation Wind Pressure Humidity
    00:00 +20°C° 0 mm 1 mps 736 mmHg 76%
    01:00 +19°C° 0 mm 1 mps 736 mmHg 79%
    02:00 +19°C° 0 mm 1 mps 737 mmHg 80%
    03:00 +19°C° 0 mm 1 mps 737 mmHg 81%
    04:00 +18°C° 0 mm 1 mps 737 mmHg 82%
    05:00 +20°C° 0 mm 1 mps 737 mmHg 75%
    06:00 +22°C° 0 mm 1 mps 737 mmHg 67%
    07:00 +25°C° 0 mm 1 mps 738 mmHg 60%
    08:00 +27°C° 0 mm 1 mps 738 mmHg 53%
    09:00 +29°C° 0 mm 1 mps 738 mmHg 47%
    10:00 +31°C° 0 mm 1 mps 738 mmHg 41%
    11:00 +31°C° 0 mm 1 mps 738 mmHg 40%
    12:00 +32°C° 0 mm 1 mps 738 mmHg 39%
    13:00 +32°C° 0 mm 1 mps 738 mmHg 37%
    14:00 +31°C° 0 mm 1 mps 738 mmHg 38%
    15:00 +31°C° 0 mm 1 mps 738 mmHg 39%
    16:00 +31°C° 0 mm 1 mps 738 mmHg 40%
    17:00 +30°C° 0 mm 1 mps 738 mmHg 43%
    18:00 +29°C° 0 mm 1 mps 738 mmHg 47%
    19:00 +28°C° 0 mm 1 mps 738 mmHg 50%
    20:00 +27°C° 0 mm 1 mps 738 mmHg 55%
    21:00 +25°C° 0 mm 1 mps 738 mmHg 59%
    22:00 +23°C° 0 mm 1 mps 738 mmHg 63%
    23:00 +22°C° 0 mm 1 mps 738 mmHg 67%

    27 July, Friday

    Time Temperature Precipitation Wind Pressure Humidity
    00:00 +21°C° 0 mm 1 mps 739 mmHg 70%
    01:00 +20°C° 0 mm 1 mps 739 mmHg 74%
    02:00 +20°C° 0 mm 1 mps 739 mmHg 75%
    03:00 +20°C° 0 mm 1 mps 739 mmHg 76%
    04:00 +20°C° 0 mm 1 mps 739 mmHg 77%
    05:00 +22°C° 0 mm 1 mps 739 mmHg 70%
    06:00 +23°C° 0 mm 1 mps 739 mmHg 64%
    07:00 +25°C° 0 mm 2 mps 739 mmHg 57%
    08:00 +27°C° 0 mm 2 mps 739 mmHg 51%
    09:00 +28°C° 0 mm 3 mps 739 mmHg 45%
    10:00 +30°C° 0 mm 4 mps 739 mmHg 39%
    11:00 +30°C° 0 mm 4 mps 739 mmHg 38%
    12:00 +32°C° 0 mm 4 mps 739 mmHg 36%
    13:00 +32°C° 0 mm 4 mps 739 mmHg 35%
    14:00 +32°C° 0 mm 4 mps 739 mmHg 36%
    15:00 +32°C° 0 mm 4 mps 739 mmHg 38%
    16:00 +32°C° 0 mm 4 mps 738 mmHg 39%
    17:00 +29°C° 0 mm 4 mps 738 mmHg 44%
    18:00 +28°C° 0 mm 4 mps 738 mmHg 49%
    19:00 +27°C° 0 mm 4 mps 738 mmHg 54%
    20:00 +25°C° 0 mm 3 mps 738 mmHg 63%
    21:00 +22°C° 0 mm 3 mps 738 mmHg 73%
    22:00 +20°C° 0 mm 3 mps 738 mmHg 83%
    23:00 +19°C° 0 mm 3 mps 738 mmHg 87%

    28 July, Saturday

    Time Temperature Precipitation Wind Pressure Humidity
    00:00 +19°C° 0 mm 2 mps 738 mmHg 90%
    01:00 +18°C° 0 mm 2 mps 737 mmHg 94%
    02:00 +18°C° 0 mm 2 mps 737 mmHg 95%
    03:00 +18°C° 0 mm 3 mps 737 mmHg 95%
    04:00 +18°C° 0 mm 3 mps 737 mmHg 96%
    05:00 +19°C° 0 mm 3 mps 737 mmHg 89%
    06:00 +20°C° 0 mm 3 mps 737 mmHg 82%
    07:00 +22°C° 0 mm 3 mps 736 mmHg 76%
    08:00 +25°C° 0 mm 3 mps 736 mmHg 68%
    09:00 +26°C° 0 mm 4 mps 736 mmHg 61%
    10:00 +28°C° 0 mm 4 mps 736 mmHg 54%
    11:00 +28°C° 0.7 mm 4 mps 736 mmHg 58%
    12:00 +28°C° 0.7 mm 4 mps 735 mmHg 62%
    13:00 +27°C° 0.7 mm 4 mps 735 mmHg 66%
    14:00 +27°C° 0.9 mm 4 mps 735 mmHg 67%
    15:00 +27°C° 0.9 mm 3 mps 735 mmHg 68%
    16:00 +27°C° 0.9 mm 3 mps 735 mmHg 69%
    17:00 +26°C° 0.9 mm 3 mps 735 mmHg 73%
    18:00 +25°C° 0.9 mm 3 mps 735 mmHg 78%
    19:00 +24°C° 0.9 mm 2 mps 735 mmHg 83%
    20:00 +23°C° 0.1 mm 2 mps 735 mmHg 86%
    21:00 +21°C° 0.1 mm 2 mps 735 mmHg 90%
    22:00 +21°C° 0.1 mm 1 mps 735 mmHg 94%
    23:00 +20°C° 0 mm 1 mps 735 mmHg 95%
    Show more